Wind_Speed
6 6 6 6 6 6 7 8 7 7 7 7 9 10 11 12 11 10 9 9 9 9 9 9 9 9 10 9 8 7 7 7 7 7 7 7 7 8 9 10 12 13 13 14 13 13 12 13 14 15 16 17 17 18 19 19 20 19 19 20 20 21 22 23 23 21 16 11 7 4 4 5 6 7
6 6 6 6 6 7 7 7 8 9 9 8 8 9 10 11 11 11 11 10 10 10 10 10 10 10 9 8 8 7 7 7 7 6 7 8 9 10 10 11 12 13 13 13 12 12 12 13 15 16 18 19 19 20 20 20 20 20 19 20 21 22 23 23 20 18 14 10 7 5 4 4 4 6
7 7 7 7 7 7 7 8 8 9 9 10 10 10 10 11 11 11 11 11 11 11 10 10 10 10 9 8 8 8 7 7 7 7 8 9 10 11 11 11 12 12 12 11 11 12 13 14 16 17 18 19 19 19 20 20 20 20 20 21 22 22 23 21 18 15 12 9 7 5 4 4 4 4
9 9 8 8 9 9 9 9 9 9 10 10 10 10 10 10 11 11 10 11 11 10 10 10 9 9 9 9 9 8 8 7 8 8 9 9 10 10 10 11 11 11 11 11 11 12 14 15 16 16 17 17 18 18 18 18 19 20 20 22 22 22 21 19 16 13 11 9 7 5 4 4 4 4
10 10 9 9 10 10 10 10 10 10 10 10 10 11 10 11 11 11 11 11 11 11 11 10 9 9 9 9 8 8 8 8 8 9 9 9 10 10 9 10 10 10 11 11 12 14 15 15 15 15 15 16 17 17 18 18 19 20 21 22 21 21 20 17 14 12 10 8 7 5 4 4 4 4
11 11 11 10 11 11 11 11 11 11 11 10 10 11 11 11 12 12 12 12 12 12 12 11 10 9 9 9 9 9 9 9 9 9 10 10 9 9 8 9 10 11 11 13 14 14 14 13 13 13 14 15 16 18 18 18 19 21 22 22 21 20 19 15 13 11 9 8 6 5 4 4 4 5
11 11 11 10 11 11 11 12 12 12 12 11 11 11 11 11 11 12 13 13 13 12 12 12 11 10 9 10 11 10 10 10 9 10 11 10 9 8 7 8 10 12 13 14 14 13 12 12 12 13 13 14 16 17 18 19 20 21 22 21 20 19 17 14 12 10 9 7 6 5 4 4 4 5
10 10 10 10 10 11 11 12 12 13 13 13 12 11 11 10 11 11 12 13 13 12 12 12 12 11 10 10 11 11 10 10 10 10 10 9 8 9 9 10 11 13 14 14 13 12 12 12 13 13 13 13 15 17 18 20 21 21 22 21 19 19 16 13 11 10 9 7 5 5 5 4 4 4
10 10 10 9 10 10 10 11 11 12 13 13 13 12 11 10 10 10 11 12 11 11 12 12 11 11 11 10 11 10 9 9 9 9 8 8 9 11 12 13 13 13 14 13 12 11 12 12 12 12 12 13 15 17 18 20 21 22 22 20 19 18 16 12 10 9 9 7 5 5 4 4 3 3
11 11 10 10 10 10 9 9 10 11 12 12 12 12 12 11 10 10 10 10 10 10 10 10 10 10 10 10 10 9 7 7 9 8 8 9 11 12 13 15 15 14 13 12 12 11 11 11 11 12 13 14 15 17 18 20 21 22 22 21 19 17 16 13 10 9 9 8 6 5 4 4 3 3
13 12 11 11 11 10 9 9 9 9 10 10 11 11 11 11 10 10 9 8 7 7 8 8 8 8 8 9 10 8 7 8 9 10 10 12 13 13 13 15 15 14 13 11 11 11 10 11 12 13 14 15 15 17 18 20 21 22 22 22 20 18 16 14 12 9 9 9 7 5 4 4 4 3
15 15 14 13 13 12 11 10 10 10 9 9 10 10 10 10 10 10 9 8 8 7 7 8 8 8 8 9 10 10 10 10 12 12 11 13 15 14 13 14 14 13 12 11 11 11 11 11 13 14 15 15 16 17 19 20 21 21 21 22 21 19 17 15 13 11 9 9 8 6 4 4 4 4
17 17 16 16 15 14 14 14 13 13 12 11 11 10 10 10 10 10 9 9 9 9 10 10 10 10 11 12 12 13 14 13 14 13 12 13 15 15 15 15 13 11 11 13 13 13 12 13 14 16 16 16 18 19 19 20 21 21 21 21 21 20 19 16 14 12 10 9 9 7 5 4 4 4
17 17 17 18 18 17 17 17 17 16 16 15 15 14 13 13 12 12 12 12 12 12 12 13 13 13 15 15 15 15 16 14 13 13 13 13 15 15 16 17 15 12 11 13 16 16 15 14 15 17 17 17 19 20 21 22 23 23 22 21 21 20 19 18 16 15 13 11 10 8 7 6 6 6
16 16 17 18 18 19 20 20 20 19 18 18 18 17 17 16 16 16 16 15 15 15 15 16 16 17 18 18 17 17 16 14 13 14 14 14 15 15 16 18 20 18 14 14 17 20 19 17 17 19 18 18 19 21 23 23 24 24 24 23 22 20 20 19 18 16 15 13 12 10 8 8 8 8
15 15 16 17 18 19 20 21 21 22 21 21 20 19 19 18 18 18 18 18 18 18 18 19 19 20 20 20 19 18 16 15 14 14 15 14 15 16 17 19 22 23 21 17 17 21 23 21 20 21 21 20 21 24 25 26 26 26 26 25 23 21 20 19 18 17 16 15 14 12 11 10 10 10
16 15 16 16 17 18 19 20 21 22 23 23 23 22 21 20 20 20 20 21 21 20 20 21 21 22 21 20 21 20 17 15 15 15 15 15 15 16 18 19 22 25 26 22 19 20 24 24 22 23 23 24 25 27 28 29 29 28 28 27 25 23 21 20 19 18 17 17 16 15 13 12 12 12
18 17 17 17 17 17 17 18 19 20 21 22 23 23 23 23 23 23 23 23 23 23 22 22 22 23 22 21 21 22 19 17 17 17 16 17 17 18 19 20 22 26 28 26 21 20 23 25 24 24 26 27 28 30 30 31 31 30 30 29 27 25 23 21 20 19 18 17 18 18 16 15 14 14
20 20 20 19 19 19 18 19 19 19 20 20 21 21 22 23 24 24 24 25 25 25 24 23 24 25 25 23 22 23 22 19 19 19 18 18 21 21 21 22 24 27 29 28 25 21 23 26 25 25 27 29 30 32 32 31 31 31 31 30 29 27 25 23 21 20 19 18 18 19 19 18 17 17
24 24 23 22 22 22 22 22 21 21 21 20 20 20 21 22 23 23 24 25 25 25 25 24 25 25 26 24 23 23 23 22 22 21 19 21 24 24 23 24 26 28 30 31 29 25 24 28 27 26 27 29 31 33 34 33 32 31 31 30 29 28 26 24 22 21 20 19 19 19 19 20 20 20
27 27 26 26 26 25 25 25 25 25 24 22 21 21 21 21 21 22 24 25 25 25 25 25 25 25 25 25 24 24 24 24 25 24 22 24 27 26 24 25 28 29 31 34 34 29 27 30 30 28 29 30 31 34 35 35 34 32 31 30 29 28 27 25 24 23 22 21 21 20 20 20 21 22
29 29 29 28 28 27 27 27 28 28 26 25 24 24 23 22 21 21 25 26 26 26 25 24 24 24 24 25 25 25 26 27 28 26 25 27 29 27 26 27 28 29 31 35 38 34 31 32 32 30 30 30 32 34 35 35 35 34 33 32 30 29 28 27 25 24 24 24 23 22 22 22 22 22
31 30 30 30 29 28 29 30 30 30 29 27 26 27 26 24 22 24 27 28 28 27 26 25 25 24 25 26 26 27 28 29 30 29 28 29 30 28 27 28 29 28 30 36 40 37 34 34 34 34 32 29 29 32 35 35 35 35 34 34 32 31 30 28 27 26 26 26 25 24 23 23 23 24
32 32 32 32 32 31 31 32 32 33 32 30 29 28 28 25 25 28 31 30 29 29 28 27 26 26 27 28 28 29 30 32 33 33 32 32 31 29 28 29 30 28 28 35 40 38 35 36 36 36 35 31 28 29 32 34 36 37 36 35 34 33 31 30 29 28 27 27 27 26 25 24 24 24
34 34 34 34 34 34 33 33 34 34 34 33 31 30 29 29 29 32 32 31 31 31 30 29 29 28 28 29 30 31 32 34 36 37 36 35 34 32 31 31 31 29 28 34 38 37 35 35 35 35 35 32 29 29 30 32 36 38 38 37 36 34 32 31 30 29 29 28 28 28 27 26 25 25
35 35 35 35 36 35 35 35 35 35 36 36 34 32 32 32 32 33 33 32 33 33 33 33 32 31 31 32 32 32 33 35 37 38 37 36 36 35 34 34 33 30 29 33 38 37 34 34 34 35 34 32 31 31 31 32 35 38 39 39 38 36 34 33 32 31 30 29 29 28 28 27 27 26
37 37 37 37 37 37 36 36 37 37 37 37 36 36 36 35 35 34 34 33 34 34 35 34 34 33 34 34 34 35 35 36 37 38 38 37 37 37 36 36 35 32 31 33 37 38 37 35 34 35 36 34 32 31 31 32 34 36 37 38 39 38 36 34 33 32 31 30 29 29 29 29 29 28
39 39 39 39 38 38 38 38 38 38 38 38 38 38 39 38 38 37 36 36 36 36 36 36 35 35 35 35 35 36 37 38 39 39 39 39 40 39 38 37 36 35 34 35 37 39 40 38 36 37 37 36 34 32 32 32 33 33 34 36 37 38 37 34 33 32 31 30 29 29 28 28 29 29
41 41 40 40 40 40 40 39 39 39 39 39 39 39 40 40 40 40 40 40 40 39 38 37 37 36 36 37 37 37 38 39 39 40 41 41 41 41 41 39 38 36 37 38 40 42 43 41 39 39 38 37 35 34 33 33 33 32 32 33 34 35 36 34 32 31 30 30 29 29 28 28 28 28
42 43 43 43 43 42 42 42 41 41 41 41 40 41 41 41 41 41 41 42 42 41 40 40 39 39 39 40 40 40 40 41 40 41 42 42 42 43 44 43 39 38 39 42 43 45 45 44 43 42 40 38 37 35 35 35 33 31 31 32 32 32 32 33 31 30 29 29 29 29 29 30 30 30
43 43 44 45 46 45 45 44 43 42 42 42 42 42 42 42 42 43 43 42 42 41 41 40 40 40 40 41 41 42 42 42 42 43 44 44 43 44 46 45 41 39 41 44 46 47 48 47 46 45 43 41 39 37 37 36 34 32 32 32 31 29 29 30 30 29 29 29 28 29 30 31 31 32
43 44 45 46 47 47 47 46 45 44 43 43 43 42 43 43 44 44 44 44 42 42 42 41 41 41 41 41 41 42 43 43 43 44 45 45 43 43 46 46 43 41 42 44 46 49 49 49 49 47 44 42 41 41 40 38 36 34 33 33 32 30 29 30 30 30 31 30 29 29 30 30 31 32
43 45 46 46 46 46 46 46 45 44 43 43 42 42 42 42 43 43 44 43 42 42 42 42 41 42 42 42 42 43 43 43 44 45 46 45 43 43 44 44 43 43 43 44 46 49 51 51 50 48 45 43 43 43 42 39 37 37 36 35 33 32 31 32 33 33 33 32 30 29 30 30 31 32
42 43 44 44 44 44 44 44 44 44 43 42 40 40 40 41 41 42 42 42 42 42 42 41 41 41 41 42 42 43 43 43 44 45 46 45 44 43 43 44 43 43 43 43 44 47 51 52 51 48 46 44 43 43 42 40 38 38 39 37 35 34 34 35 35 35 35 34 32 30 31 31 32 34
42 42 43 43 44 43 42 42 42 43 43 43 42 40 39 40 41 41 42 42 42 42 42 42 41 41 41 41 42 42 43 43 43 44 45 45 45 44 43 43 43 43 44 44 43 45 49 51 51 49 48 46 44 42 41 41 41 39 39 38 36 35 36 36 36 36 36 37 35 33 31 31 32 35
45 45 44 44 45 45 44 43 43 43 43 44 43 42 40 40 41 41 42 43 43 42 42 42 42 42 42 42 41 42 42 42 42 43 43 43 43 42 41 41 41 42 44 45 45 46 47 48 50 51 49 48 46 41 39 42 43 40 38 37 38 38 38 38 38 36 37 38 38 35 33 31 32 35
51 50 49 49 48 47 47 46 46 45 45 45 44 44 43 43 43 43 43 44 44 43 43 43 43 43 43 43 42 42 43 43 42 41 40 40 40 40 39 40 41 41 42 42 43 44 45 46 48 50 50 49 47 42 39 41 44 41 38 36 37 39 41 41 39 37 37 39 39 38 36 34 32 34
57 56 55 54 53 52 52 51 50 49 49 48 47 47 47 47 47 47 47 47 46 46 46 45 44 44 45 45 44 44 44 44 43 42 42 42 42 43 42 42 42 42 41 40 40 41 43 43 45 48 49 49 48 44 41 42 41 40 39 37 36 39 43 43 41 39 38 40 41 40 38 36 34 34
62 61 61 60 59 58 57 57 56 55 54 54 53 53 52 52 52 52 51 51 51 50 50 49 48 47 47 47 47 46 46 46 45 44 44 45 45 45 44 44 43 42 41 40 40 42 43 43 44 47 49 49 48 46 45 43 39 37 38 38 38 40 43 44 43 41 40 41 43 43 41 38 37 37
65 65 65 65 64 64 63 63 62 61 60 60 60 59 59 58 58 58 57 56 55 54 53 53 52 51 51 50 50 50 49 49 48 47 47 47 47 46 45 45 44 44 42 40 40 42 44 44 46 48 49 48 48 48 47 44 38 33 34 38 41 42 43 44 44 44 43 44 46 46 43 41 41 42
67 67 67 67 67 68 68 67 67 66 65 65 64 64 64 63 62 62 61 60 59 58 57 56 56 55 55 54 54 53 52 51 51 50 50 50 50 48 47 47 46 46 46 44 42 43 44 47 49 49 49 48 48 48 47 44 38 33 32 37 42 44 44 44 45 46 45 46 47 47 45 44 45 45
71 70 70 70 69 69 69 69 69 69 69 68 67 66 66 65 65 64 64 63 62 61 60 59 59 58 58 58 57 56 55 54 53 52 52 52 51 50 49 49 49 49 49 47 45 44 45 48 49 50 50 49 48 48 46 44 40 35 33 36 41 44 46 46 46 47 47 47 48 48 47 48 48 47
74 74 73 72 72 71 71 71 70 70 70 69 68 67 66 66 65 65 64 64 63 63 62 61 60 60 59 59 59 59 59 58 57 55 55 55 55 53 52 51 51 51 50 49 47 46 46 47 49 50 50 49 48 48 46 43 40 38 37 37 40 44 46 47 48 49 49 48 48 49 50 50 50 49
76 76 76 75 75 74 74 73 72 72 71 70 70 69 68 67 66 65 65 65 64 63 63 62 61 60 60 60 60 60 60 60 59 58 57 57 56 56 55 54 54 53 52 51 50 48 47 48 49 49 49 48 48 48 47 44 41 40 38 39 41 43 45 47 49 50 50 50 50 51 52 51 50 49
77 77 77 77 77 77 77 76 75 74 73 72 72 71 70 68 67 66 66 65 65 64 63 62 61 61 60 60 60 60 60 61 60 60 59 58 57 57 56 56 56 55 54 53 52 51 49 49 50 50 49 48 48 49 48 45 42 39 37 37 39 41 43 45 47 48 49 48 48 48 50 49 48 46
Wind_Direction
168 171 169 167 170 176 180 184 190 198 204 201 197 196 196 199 203 206 209 212 218 225 229 231 234 239 247 256 265 277 288 297 304 311 320 326 330 334 337 340 342 344 349 357 5 11 12 9 5 360 355 352 350 352 353 351 350 350 348 346 348 349 347 346 349 350 351 4 26 49 60 71 81 77
178 179 180 179 177 183 189 189 191 195 203 208 208 209 212 211 207 206 209 212 217 225 232 237 242 245 251 261 271 279 284 291 301 311 320 326 330 334 337 340 342 346 353 360 4 6 4 1 358 354 349 346 344 346 349 351 351 350 348 346 347 348 346 348 355 357 0 17 36 53 64 69 79 80
192 190 191 190 188 191 193 194 198 201 206 211 214 217 220 221 219 216 215 216 220 225 229 236 243 250 257 263 268 273 280 288 298 309 318 324 327 331 335 338 342 347 354 358 359 359 356 354 351 347 343 341 341 342 345 348 348 347 345 343 345 346 345 351 1 4 9 26 40 53 62 62 67 73
207 204 203 199 198 200 199 198 201 206 210 214 221 227 229 230 231 230 228 228 231 234 236 240 246 252 256 258 264 273 282 289 298 307 315 319 322 326 331 335 339 346 350 351 352 351 350 347 344 341 339 338 340 342 344 344 342 341 340 341 344 346 347 356 6 8 16 33 42 51 56 53 53 52
221 217 215 211 208 207 206 206 206 209 212 215 221 228 232 232 234 237 237 238 242 246 249 251 251 251 255 261 270 282 290 296 303 307 311 314 318 325 332 334 336 340 341 341 344 345 344 342 340 339 338 338 340 342 343 342 340 339 340 342 345 348 351 0 8 8 19 36 43 46 47 44 44 35
232 228 225 222 219 216 214 213 213 213 215 218 223 228 231 233 233 236 239 242 246 249 254 259 258 256 262 273 280 285 289 294 300 303 306 312 320 327 332 332 331 331 331 333 339 343 343 342 342 340 339 338 338 340 341 341 341 341 342 344 347 350 354 3 9 9 21 37 42 41 37 35 35 27
236 234 232 229 228 226 223 221 220 220 221 223 228 231 234 236 237 238 241 244 248 252 257 263 267 267 268 271 274 277 281 286 293 296 301 310 319 323 324 322 322 322 325 331 339 344 343 340 337 334 334 335 335 338 342 343 345 345 345 347 349 351 355 4 9 10 19 32 38 35 28 22 21 19
238 237 236 234 234 234 232 230 227 225 226 228 232 237 240 242 243 244 247 249 251 255 259 264 270 274 273 271 274 280 286 289 293 295 300 311 317 317 318 318 318 319 324 332 339 340 335 331 329 330 336 339 341 345 349 350 351 351 350 349 350 351 354 2 7 8 13 22 32 29 19 11 7 7
238 239 237 235 235 235 235 235 233 232 231 232 235 241 247 251 253 254 255 257 258 260 264 268 272 275 279 282 285 290 295 296 295 295 302 310 310 311 315 315 316 320 324 329 331 328 326 328 330 338 349 353 353 355 356 355 356 355 353 351 349 349 351 354 358 2 5 7 19 24 12 359 353 352
236 238 238 237 235 235 234 235 235 234 234 235 237 240 245 251 256 258 260 262 264 265 269 273 275 276 279 283 287 292 295 290 289 295 303 305 302 305 308 309 313 319 321 321 322 324 329 334 337 346 355 358 357 358 358 357 356 356 355 352 349 347 346 345 345 351 355 352 357 12 5 346 336 333
234 234 235 237 237 238 237 237 237 236 234 235 237 238 239 241 245 250 255 258 261 266 270 273 275 275 273 273 278 287 287 280 282 292 300 299 299 303 305 305 309 315 318 320 323 329 337 340 339 343 350 354 354 355 355 355 353 353 353 352 350 347 343 341 337 338 344 342 341 352 353 337 323 315
236 235 234 236 237 240 241 241 240 240 238 237 238 238 236 236 238 241 246 248 251 257 262 265 267 268 268 267 272 281 287 286 287 291 294 290 292 300 304 303 306 310 316 323 326 331 340 341 336 336 342 346 347 348 349 348 347 347 348 349 349 348 343 338 333 329 329 329 331 337 334 321 312 301
237 237 236 237 238 240 242 243 243 244 244 244 245 244 243 243 244 246 248 249 251 254 257 261 265 267 268 270 274 279 284 288 290 292 289 284 288 298 302 302 306 312 319 324 324 326 334 336 332 330 334 337 338 339 339 339 339 340 341 342 344 346 343 337 330 324 318 313 316 325 323 304 294 289
235 237 238 238 239 240 241 243 244 247 249 250 250 251 251 252 254 256 258 259 259 262 263 265 269 270 270 273 277 280 283 287 290 289 288 287 291 298 300 300 306 316 323 323 320 319 323 327 324 322 326 330 329 329 330 331 331 332 333 335 337 340 340 337 329 322 316 309 304 309 314 301 287 280
236 237 239 240 240 241 242 243 244 246 249 250 252 253 254 257 259 261 262 264 265 266 267 269 271 272 274 276 279 280 282 286 288 287 288 292 296 300 300 299 303 311 318 319 315 313 315 320 319 316 317 320 320 320 322 323 325 325 326 328 330 332 333 333 329 321 315 309 301 297 301 299 289 280
244 242 241 242 242 243 244 244 245 246 247 249 251 252 254 256 258 261 262 264 265 266 267 269 271 272 273 276 277 277 279 282 284 285 288 293 297 299 299 298 300 304 308 313 313 309 310 315 314 309 309 311 311 312 315 317 320 320 321 322 324 325 325 325 325 321 312 306 299 293 291 291 288 282
249 248 247 246 245 246 247 248 248 248 249 249 250 252 253 254 256 258 260 262 264 264 266 267 269 270 270 272 274 274 272 273 277 281 284 288 291 291 291 292 294 295 298 304 307 303 302 305 305 302 302 304 305 307 310 312 315 316 316 317 318 318 318 316 317 317 312 304 297 291 287 284 283 282
251 252 253 253 252 252 252 251 251 251 252 252 253 253 254 255 255 256 257 259 261 262 263 265 266 267 268 268 271 273 271 267 269 272 276 280 282 281 282 285 286 287 291 295 299 296 294 296 298 297 297 300 301 304 306 308 311 312 312 313 313 312 311 310 309 310 309 305 298 291 285 281 279 278
250 252 254 256 257 257 257 256 255 254 254 254 254 254 255 256 256 256 257 258 259 260 261 262 263 267 269 269 269 271 271 268 265 266 269 272 275 275 277 280 281 282 286 290 292 291 287 289 292 293 294 297 299 301 304 305 307 308 309 309 309 307 306 305 304 303 304 304 300 293 287 282 278 276
243 246 248 251 253 255 257 258 259 259 258 257 255 253 252 253 256 257 259 260 260 261 261 261 262 265 269 271 269 269 270 270 268 268 268 269 270 271 275 278 279 280 284 288 290 290 286 287 291 293 293 295 298 300 302 303 304 305 305 305 305 304 303 301 300 299 299 300 299 296 291 286 281 278
245 246 247 248 251 254 256 259 260 261 262 262 261 258 255 253 254 256 259 261 261 261 261 260 261 263 265 268 269 268 268 268 268 269 268 267 268 270 273 276 277 281 285 287 290 292 290 289 292 293 293 295 298 299 300 301 301 302 302 302 301 301 301 300 298 297 297 296 295 294 293 290 286 282
250 251 251 252 253 256 259 261 263 265 266 266 267 267 265 263 260 258 260 263 262 262 263 263 262 262 262 264 267 267 267 267 268 269 268 267 270 272 274 275 277 281 284 285 288 293 293 292 293 294 293 295 297 297 297 298 298 299 299 299 299 299 300 299 298 297 296 294 293 292 291 291 289 286
249 251 253 254 255 256 258 260 262 264 265 265 266 268 270 272 272 267 265 266 267 268 269 268 266 265 264 264 265 264 265 266 267 269 268 268 270 272 273 275 277 280 281 281 285 292 295 294 295 295 295 295 296 296 296 296 296 296 296 297 297 298 298 298 298 296 295 293 292 291 290 289 289 289
249 250 251 253 255 255 256 259 261 263 264 264 264 266 268 270 269 268 269 272 273 274 275 274 271 269 266 266 265 265 264 265 267 268 268 269 271 273 274 274 275 277 277 277 281 288 292 294 295 296 297 297 295 294 294 295 295 294 294 295 295 296 297 297 296 295 293 291 290 289 289 287 286 286
250 251 251 252 254 255 257 259 261 264 267 267 267 267 268 267 265 267 270 273 275 276 278 277 275 273 271 269 267 266 265 265 266 268 269 270 272 274 275 273 273 274 274 274 278 283 288 290 292 293 295 296 295 293 292 293 294 294 294 295 294 295 295 295 294 293 291 289 287 286 287 287 286 285
251 251 251 252 253 254 256 257 259 262 265 268 269 268 267 266 265 267 270 272 274 275 275 275 275 275 275 273 272 271 270 269 269 271 272 273 274 274 274 273 273 274 273 274 278 283 287 289 291 293 295 297 297 296 295 293 292 293 295 296 295 294 293 292 291 291 290 288 286 286 287 288 287 287
251 250 250 250 251 252 253 254 255 257 260 263 266 267 267 266 266 266 267 268 269 270 271 272 273 274 274 275 276 276 276 276 276 277 278 279 278 277 277 277 278 279 278 278 281 285 288 290 292 294 296 297 299 300 299 296 294 294 294 295 295 293 291 289 288 287 287 287 288 289 289 290 290 290
254 253 252 251 251 252 252 252 253 254 255 257 260 262 264 266 267 268 268 267 267 267 268 269 271 272 273 274 275 275 275 276 277 278 279 280 280 280 281 282 283 284 284 284 284 285 287 289 291 292 294 296 299 300 300 297 295 294 293 293 291 290 288 287 286 285 285 287 287 288 290 291 292 292
255 255 255 254 254 254 255 255 255 255 255 256 257 259 261 263 265 267 268 268 269 269 269 270 270 271 272 272 272 272 273 274 275 277 277 279 280 282 283 283 284 285 286 285 284 285 286 289 290 291 292 294 297 299 299 298 297 295 292 289 286 284 285 285 284 285 287 288 289 291 293 293 292 291
254 255 255 256 256 256 257 257 257 258 259 260 261 261 262 262 263 264 266 267 269 270 270 271 271 271 271 272 273 273 274 275 276 277 277 278 280 281 281 281 282 284 285 284 284 285 287 289 289 290 291 292 295 297 298 298 299 297 292 286 281 279 281 282 284 286 287 289 292 295 296 295 294 293
255 256 256 256 256 257 257 257 258 259 261 262 263 264 265 265 265 265 266 267 269 270 270 269 269 270 270 270 272 273 274 275 277 277 277 277 278 278 279 280 282 282 282 283 284 285 286 287 288 290 292 293 294 296 296 296 298 296 291 285 279 276 277 279 282 284 284 287 291 293 294 294 294 293
256 256 255 256 257 258 258 258 258 259 261 262 264 265 265 266 266 267 268 269 270 270 270 269 269 269 269 270 270 271 272 273 273 274 274 276 277 278 278 279 280 278 277 279 282 283 284 285 287 289 291 293 293 293 293 294 295 293 289 284 279 276 275 277 279 281 283 285 287 289 289 289 288 287
259 257 256 256 258 259 259 258 257 258 259 260 262 263 264 265 266 267 268 269 270 270 270 270 270 270 270 271 271 272 272 272 272 273 274 275 276 277 278 279 278 276 274 274 277 279 281 282 284 286 289 290 290 290 290 291 291 290 287 282 278 277 276 276 278 280 282 284 286 287 287 286 284 282
260 258 257 256 255 255 256 256 255 255 255 256 257 259 261 263 265 266 268 268 269 269 270 271 271 271 272 272 272 272 273 273 274 274 275 276 277 277 277 277 277 276 274 273 273 276 278 279 282 284 286 286 286 286 287 288 287 286 285 281 278 276 275 276 278 281 283 285 286 286 286 286 285 283
260 258 257 255 253 253 253 254 254 254 254 254 254 255 258 261 263 265 266 267 268 268 270 270 271 271 272 273 273 273 274 273 274 274 275 277 278 278 278 278 278 277 276 274 273 274 276 278 280 281 283 284 284 283 284 284 283 283 283 282 277 273 273 274 277 280 282 283 283 283 283 283 283 283
258 257 256 254 254 254 254 255 255 255 255 255 255 255 257 260 262 264 266 267 267 268 269 270 271 272 273 273 274 274 274 274 273 274 275 276 277 278 280 282 283 281 279 278 276 274 275 278 280 281 282 283 284 283 282 281 280 281 283 283 278 273 271 271 273 276 279 280 281 282 281 279 279 279
256 256 255 254 254 254 255 256 256 257 257 257 257 257 258 259 261 264 265 267 268 269 269 270 271 272 273 273 274 274 274 274 273 273 274 275 275 277 280 284 285 284 283 281 279 277 276 277 280 283 284 284 284 284 281 278 279 282 284 283 278 274 271 270 272 274 275 277 280 281 279 278 277 277
255 255 255 255 254 254 255 256 257 258 258 259 259 260 260 261 261 263 264 266 268 269 270 270 270 271 271 271 272 272 273 273 272 272 272 272 273 276 279 282 282 282 282 281 280 279 279 280 282 284 285 284 285 285 281 278 280 283 284 282 278 274 272 272 273 274 275 277 280 280 279 278 277 276
253 254 254 255 255 255 255 256 256 257 258 259 260 261 261 262 263 263 263 264 266 267 269 270 270 270 271 271 271 271 271 271 272 272 272 272 273 275 278 279 280 280 280 279 279 280 282 284 285 285 284 284 285 285 281 278 278 281 282 280 278 274 272 274 276 277 277 279 280 281 281 281 279 277
254 253 253 253 254 255 256 256 256 256 257 258 258 259 260 261 262 263 263 263 264 265 267 268 269 270 270 270 270 270 270 270 271 271 271 272 273 274 276 277 277 278 278 278 279 281 284 286 286 285 286 287 287 285 282 278 276 276 276 275 273 271 271 272 274 275 275 277 278 280 282 282 282 282
255 254 254 253 253 253 254 255 256 256 256 256 257 258 258 259 259 260 261 262 263 263 265 266 267 268 268 268 269 269 270 270 270 270 270 270 271 272 274 275 275 276 277 277 278 281 283 285 285 285 287 287 285 284 283 281 278 274 269 267 268 269 269 269 270 271 272 274 276 278 280 281 281 282
255 255 255 255 254 254 254 254 255 256 256 256 256 257 257 258 258 259 260 260 261 262 263 264 265 266 266 266 266 267 267 268 268 269 269 269 270 270 271 272 273 274 275 276 277 278 280 281 283 284 285 284 282 283 284 283 280 275 267 263 264 267 268 269 270 271 271 272 273 275 276 277 277 278
256 256 256 256 256 255 255 255 255 255 256 257 257 257 257 257 258 258 259 260 260 261 261 262 263 263 263 263 264 264 265 265 266 267 268 268 270 270 270 270 271 272 273 274 275 275 276 278 280 281 281 281 281 282 282 282 280 276 270 264 262 265 268 270 272 273 274 273 274 276 276 275 274 275
255 256 256 256 256 257 256 256 256 256 256 256 257 257 257 257 257 258 258 259 260 260 260 261 261 262 262 262 261 262 263 264 264 265 266 267 268 269 269 269 269 270 270 271 272 273 273 274 275 277 278 278 279 279 280 280 279 277 274 270 265 264 266 268 270 272 275 276 278 278 277 275 275 275
254 254 255 256 256 257 257 257 257 257 256 256 257 257 257 257 257 257 258 258 259 259 260 260 260 261 261 261 261 261 261 262 263 264 264 265 265 266 267 267 268 268 269 270 270 271 270 270 272 273 275 275 276 277 278 278 277 277 278 276 271 267 265 266 267 270 274 277 279 277 275 275 277 277
Height
5972 5972 5972 5972 5972 5973 5973 5973 5973 5974 5974 5975 5975 5975 5975 5976 5976 5977 5977 5978 5978 5978 5978 5978 5978 5978 5978 5977 5978 5978 5978 5978 5977 5977 5977 5976 5976 5976 5975 5975 5974 5974 5973 5972 5971 5971 5970 5969 5969 5967 5966 5965 5963 5962 5960 5959 5957 5955 5953 5951 5950 5948 5946 5944 5942 5939 5937 5936 5935 5935 5934 5934 5934 5933
5971 5972 5972 5972 5972 5973 5973 5973 5973 5974 5974 5975 5975 5975 5976 5976 5976 5976 5976 5977 5977 5977 5977 5977 5977 5977 5977 5977 5977 5977 5977 5977 5977 5976 5976 5976 5975 5975 5975 5974 5974 5973 5972 5972 5971 5970 5970 5969 5968 5967 5966 5964 5963 5961 5960 5958 5956 5955 5953 5951 5950 5948 5946 5944 5941 5939 5937 5936 5935 5935 5934 5934 5934 5933
5971 5971 5972 5972 5972 5972 5973 5973 5973 5974 5974 5974 5975 5975 5975 5976 5975 5975 5975 5976 5976 5976 5976 5976 5976 5976 5977 5977 5977 5976 5976 5976 5976 5975 5975 5975 5975 5974 5974 5973 5973 5972 5972 5971 5971 5970 5969 5969 5968 5967 5965 5964 5962 5961 5960 5958 5956 5955 5953 5951 5950 5948 5946 5943 5941 5939 5938 5936 5935 5935 5934 5934 5934 5934
5971 5971 5971 5971 5972 5972 5972 5973 5973 5973 5974 5974 5974 5975 5975 5975 5975 5975 5975 5975 5975 5975 5975 5975 5975 5976 5976 5976 5976 5976 5976 5975 5975 5975 5975 5974 5974 5974 5973 5973 5972 5971 5971 5970 5970 5969 5969 5968 5967 5966 5965 5963 5962 5961 5959 5958 5956 5955 5953 5951 5950 5948 5946 5944 5941 5940 5938 5937 5936 5935 5935 5935 5935 5934
5970 5970 5970 5971 5971 5971 5971 5972 5972 5972 5973 5973 5973 5974 5974 5975 5975 5975 5975 5975 5975 5975 5975 5975 5975 5975 5975 5975 5975 5975 5975 5975 5975 5974 5974 5973 5973 5972 5972 5972 5971 5970 5970 5969 5969 5968 5968 5967 5966 5965 5964 5963 5961 5960 5959 5958 5956 5954 5953 5951 5949 5948 5946 5944 5942 5940 5939 5937 5936 5936 5936 5935 5935 5935
5970 5970 5970 5970 5970 5970 5970 5971 5971 5971 5972 5972 5972 5973 5973 5973 5974 5974 5974 5975 5975 5975 5974 5974 5974 5974 5974 5974 5974 5974 5974 5974 5974 5973 5972 5972 5972 5971 5971 5970 5970 5969 5969 5969 5968 5967 5967 5966 5965 5964 5963 5962 5961 5960 5958 5957 5956 5954 5952 5951 5949 5948 5946 5944 5943 5941 5939 5938 5937 5936 5936 5936 5936 5935
5969 5969 5969 5969 5969 5969 5970 5970 5970 5970 5971 5971 5971 5971 5972 5972 5972 5973 5973 5974 5974 5974 5974 5974 5974 5974 5974 5974 5973 5973 5973 5973 5972 5972 5971 5971 5970 5970 5970 5970 5969 5968 5968 5967 5967 5966 5966 5965 5964 5963 5962 5961 5960 5959 5958 5956 5955 5953 5952 5950 5949 5947 5946 5944 5943 5942 5940 5939 5938 5937 5937 5936 5936 5935
5969 5968 5969 5969 5969 5969 5969 5969 5969 5970 5970 5970 5970 5970 5971 5971 5971 5972 5972 5972 5973 5973 5973 5973 5973 5973 5973 5973 5972 5972 5972 5972 5972 5971 5970 5970 5970 5969 5969 5968 5968 5967 5967 5966 5966 5965 5965 5964 5963 5962 5961 5960 5959 5958 5957 5956 5954 5953 5951 5950 5949 5947 5946 5945 5944 5943 5941 5939 5938 5937 5937 5937 5936 5936
5968 5968 5968 5968 5968 5968 5968 5968 5968 5969 5969 5969 5970 5970 5970 5970 5971 5971 5971 5971 5971 5972 5972 5972 5972 5972 5972 5972 5971 5971 5971 5971 5971 5970 5970 5970 5969 5968 5968 5967 5967 5966 5966 5965 5965 5964 5964 5963 5962 5961 5960 5959 5958 5957 5956 5955 5954 5952 5951 5950 5948 5947 5946 5945 5944 5943 5942 5940 5939 5938 5937 5937 5936 5936
5967 5967 5968 5968 5968 5968 5967 5967 5967 5968 5968 5968 5968 5969 5969 5970 5970 5970 5970 5970 5970 5971 5971 5971 5971 5971 5971 5971 5970 5970 5971 5971 5970 5970 5969 5969 5968 5968 5967 5967 5966 5966 5965 5965 5964 5964 5963 5962 5961 5960 5960 5959 5958 5957 5956 5954 5953 5952 5951 5950 5948 5947 5946 5945 5945 5943 5942 5941 5939 5938 5937 5937 5936 5935
5966 5966 5966 5967 5967 5967 5967 5967 5967 5967 5967 5967 5967 5968 5968 5968 5969 5969 5969 5969 5970 5970 5970 5970 5970 5970 5970 5970 5970 5969 5970 5970 5969 5969 5969 5968 5968 5967 5967 5966 5966 5965 5965 5964 5964 5963 5962 5961 5961 5960 5959 5958 5958 5956 5955 5954 5953 5952 5951 5950 5949 5947 5946 5945 5944 5944 5943 5941 5940 5938 5937 5936 5936 5935
5964 5965 5965 5966 5966 5966 5967 5967 5967 5967 5967 5967 5967 5967 5967 5967 5968 5968 5968 5968 5969 5969 5969 5969 5969 5969 5969 5969 5969 5969 5969 5968 5968 5968 5968 5968 5967 5967 5966 5966 5965 5965 5964 5964 5963 5962 5962 5961 5960 5959 5959 5958 5957 5956 5955 5954 5953 5952 5951 5950 5948 5947 5946 5945 5944 5943 5942 5941 5940 5938 5937 5936 5935 5934
5962 5963 5964 5964 5965 5965 5966 5966 5966 5966 5966 5966 5966 5967 5967 5967 5967 5967 5967 5968 5968 5968 5968 5968 5968 5968 5968 5968 5968 5967 5967 5967 5967 5967 5967 5967 5966 5966 5965 5965 5964 5964 5964 5963 5962 5962 5961 5961 5960 5959 5958 5958 5957 5956 5955 5954 5952 5951 5950 5949 5948 5947 5946 5945 5944 5943 5942 5941 5940 5938 5937 5936 5935 5934
5961 5961 5962 5963 5963 5964 5964 5964 5965 5965 5965 5965 5965 5966 5966 5966 5967 5967 5967 5967 5967 5967 5967 5967 5967 5967 5966 5966 5966 5966 5965 5966 5966 5965 5965 5965 5965 5965 5964 5963 5963 5963 5963 5962 5961 5960 5961 5961 5960 5959 5958 5957 5956 5955 5955 5954 5952 5951 5950 5949 5948 5946 5945 5944 5943 5942 5941 5940 5939 5938 5937 5936 5935 5934
5960 5960 5961 5961 5962 5962 5962 5962 5963 5963 5963 5963 5963 5964 5964 5965 5965 5965 5966 5966 5966 5966 5966 5966 5965 5965 5965 5964 5964 5964 5964 5964 5964 5964 5964 5964 5964 5963 5963 5962 5961 5961 5961 5962 5960 5959 5959 5959 5959 5957 5957 5957 5956 5955 5954 5953 5952 5951 5949 5948 5947 5946 5944 5943 5942 5941 5940 5939 5938 5938 5936 5935 5935 5934
5958 5959 5959 5960 5960 5960 5960 5960 5960 5961 5961 5961 5961 5962 5962 5962 5963 5963 5963 5963 5963 5964 5964 5964 5963 5963 5963 5963 5962 5963 5963 5963 5963 5963 5962 5963 5962 5962 5961 5960 5959 5958 5958 5960 5960 5957 5956 5957 5957 5956 5955 5956 5955 5954 5953 5952 5951 5950 5949 5947 5946 5945 5944 5942 5941 5940 5939 5938 5937 5937 5935 5935 5934 5933
5955 5956 5956 5957 5958 5958 5958 5959 5959 5958 5958 5959 5959 5959 5960 5960 5960 5960 5960 5960 5960 5961 5961 5961 5961 5960 5961 5961 5960 5960 5961 5961 5961 5961 5961 5961 5961 5960 5959 5959 5958 5956 5955 5956 5958 5957 5955 5955 5955 5954 5954 5954 5953 5952 5951 5951 5950 5949 5947 5946 5945 5944 5942 5941 5940 5939 5938 5937 5936 5935 5934 5933 5933 5932
5952 5953 5954 5954 5955 5955 5956 5957 5957 5957 5957 5957 5957 5957 5957 5957 5957 5958 5958 5957 5957 5957 5958 5958 5958 5957 5958 5958 5958 5958 5959 5959 5959 5959 5959 5958 5958 5958 5957 5957 5956 5953 5952 5953 5956 5956 5954 5953 5954 5953 5952 5952 5951 5950 5949 5948 5948 5947 5946 5945 5943 5942 5941 5940 5939 5938 5937 5935 5935 5934 5933 5932 5931 5931
5950 5951 5951 5952 5952 5952 5953 5953 5954 5955 5955 5955 5955 5955 5955 5955 5955 5955 5955 5954 5954 5955 5955 5956 5955 5955 5955 5956 5956 5955 5955 5956 5956 5956 5957 5956 5955 5954 5954 5954 5953 5951 5949 5950 5952 5954 5953 5951 5952 5952 5950 5950 5948 5947 5946 5946 5945 5944 5943 5942 5941 5940 5939 5938 5937 5936 5935 5934 5933 5932 5932 5931 5930 5929
5947 5948 5949 5949 5949 5949 5949 5950 5950 5951 5951 5952 5953 5953 5953 5952 5952 5952 5952 5951 5952 5952 5953 5953 5953 5952 5952 5952 5953 5952 5952 5953 5953 5953 5954 5953 5952 5951 5952 5952 5951 5949 5948 5947 5947 5950 5951 5948 5948 5949 5948 5947 5946 5944 5942 5942 5941 5941 5940 5939 5939 5938 5937 5937 5936 5935 5934 5933 5932 5931 5930 5929 5929 5928
5944 5944 5945 5946 5946 5946 5947 5947 5947 5947 5948 5949 5949 5950 5950 5950 5950 5950 5949 5948 5949 5949 5949 5949 5950 5950 5949 5949 5949 5949 5949 5949 5949 5950 5951 5950 5948 5949 5950 5950 5949 5948 5947 5944 5942 5945 5947 5945 5944 5945 5945 5944 5943 5940 5938 5937 5937 5936 5936 5936 5936 5935 5935 5934 5934 5933 5932 5931 5930 5929 5928 5927 5927 5926
5941 5941 5942 5943 5944 5944 5944 5944 5944 5945 5946 5947 5947 5947 5947 5947 5948 5947 5945 5944 5944 5945 5945 5946 5946 5946 5946 5946 5946 5946 5946 5945 5945 5946 5947 5946 5944 5946 5947 5947 5947 5947 5946 5942 5939 5941 5944 5943 5941 5942 5942 5941 5940 5937 5935 5934 5933 5932 5932 5932 5932 5932 5931 5931 5931 5930 5929 5928 5927 5927 5926 5925 5924 5924
5937 5938 5938 5939 5940 5941 5941 5940 5941 5941 5942 5944 5944 5944 5945 5945 5946 5944 5942 5941 5941 5941 5942 5942 5943 5943 5943 5943 5943 5943 5942 5941 5940 5941 5942 5942 5941 5942 5943 5944 5944 5945 5945 5940 5935 5937 5939 5939 5938 5937 5937 5938 5938 5934 5931 5930 5929 5928 5928 5927 5927 5928 5928 5928 5927 5927 5926 5925 5924 5924 5923 5923 5922 5921
5934 5934 5935 5935 5936 5936 5936 5936 5937 5937 5938 5939 5941 5941 5942 5943 5943 5940 5939 5939 5939 5939 5939 5940 5940 5940 5940 5940 5940 5939 5939 5937 5936 5936 5937 5937 5937 5938 5940 5940 5939 5941 5942 5937 5932 5933 5935 5934 5934 5932 5931 5933 5935 5932 5929 5927 5925 5924 5924 5924 5923 5923 5923 5924 5923 5923 5922 5921 5921 5920 5919 5919 5918 5917
5931 5931 5931 5932 5932 5932 5933 5933 5933 5933 5934 5935 5937 5939 5939 5939 5939 5937 5936 5937 5937 5936 5937 5936 5936 5937 5937 5936 5936 5936 5935 5934 5933 5931 5932 5932 5933 5934 5935 5935 5934 5935 5937 5933 5929 5929 5931 5930 5930 5928 5927 5928 5929 5929 5927 5925 5922 5920 5920 5920 5920 5919 5919 5919 5919 5918 5918 5917 5917 5916 5915 5915 5914 5914
5927 5927 5927 5928 5928 5928 5929 5930 5930 5930 5930 5930 5932 5934 5934 5935 5934 5934 5934 5934 5934 5933 5933 5933 5933 5933 5932 5932 5932 5932 5931 5930 5929 5928 5928 5929 5929 5929 5930 5929 5929 5931 5932 5929 5925 5925 5927 5927 5926 5924 5923 5924 5924 5925 5925 5923 5920 5918 5916 5916 5916 5915 5915 5914 5914 5913 5913 5913 5912 5912 5911 5911 5910 5909
5922 5922 5922 5923 5924 5924 5925 5925 5925 5925 5926 5926 5927 5927 5928 5929 5929 5929 5930 5930 5930 5930 5929 5929 5930 5930 5929 5928 5928 5928 5927 5926 5925 5924 5924 5924 5924 5924 5924 5924 5925 5927 5928 5926 5923 5922 5922 5922 5922 5919 5918 5919 5920 5921 5921 5920 5918 5916 5914 5913 5912 5911 5910 5910 5909 5909 5908 5908 5908 5908 5907 5907 5907 5906
5918 5918 5918 5919 5919 5920 5920 5921 5921 5921 5922 5922 5922 5922 5922 5923 5923 5924 5924 5925 5924 5925 5925 5925 5925 5926 5925 5924 5924 5924 5922 5921 5921 5921 5920 5920 5919 5919 5920 5921 5921 5923 5923 5922 5920 5917 5916 5916 5916 5914 5913 5913 5914 5916 5916 5915 5914 5912 5910 5909 5907 5906 5905 5906 5906 5905 5904 5904 5904 5904 5904 5904 5903 5903
5913 5914 5914 5914 5914 5915 5916 5916 5917 5917 5918 5917 5918 5918 5918 5919 5919 5919 5919 5919 5919 5920 5920 5921 5921 5921 5921 5920 5919 5919 5918 5917 5917 5917 5916 5916 5915 5915 5915 5916 5917 5918 5918 5916 5914 5911 5910 5910 5910 5909 5908 5908 5909 5910 5911 5910 5910 5908 5906 5904 5903 5901 5900 5901 5901 5901 5901 5901 5900 5900 5900 5900 5900 5900
5908 5909 5910 5910 5910 5910 5910 5911 5912 5913 5913 5913 5914 5914 5914 5914 5915 5915 5915 5915 5915 5915 5916 5916 5916 5916 5916 5915 5915 5914 5914 5914 5914 5913 5912 5912 5912 5911 5909 5910 5913 5914 5912 5909 5908 5906 5905 5904 5904 5903 5904 5904 5904 5905 5905 5905 5905 5904 5902 5899 5898 5897 5896 5896 5897 5898 5898 5898 5898 5898 5897 5896 5896 5896
5902 5903 5904 5905 5905 5905 5905 5906 5907 5908 5908 5908 5909 5909 5909 5909 5910 5910 5910 5910 5910 5911 5911 5911 5911 5911 5911 5911 5911 5910 5910 5910 5910 5908 5906 5906 5908 5906 5904 5904 5908 5910 5907 5904 5902 5900 5899 5899 5898 5897 5898 5899 5900 5900 5899 5899 5900 5900 5897 5894 5893 5894 5893 5892 5893 5893 5893 5894 5895 5894 5893 5893 5892 5892
5896 5897 5898 5898 5899 5900 5900 5901 5902 5903 5903 5903 5903 5903 5903 5904 5904 5904 5904 5905 5905 5905 5905 5905 5906 5906 5906 5906 5906 5905 5905 5905 5904 5902 5900 5901 5902 5902 5899 5899 5903 5904 5902 5900 5897 5894 5893 5893 5892 5892 5893 5894 5894 5894 5893 5893 5894 5894 5892 5889 5888 5890 5890 5888 5888 5888 5888 5889 5890 5889 5888 5888 5887 5887
5889 5890 5891 5892 5893 5893 5894 5895 5896 5897 5897 5898 5898 5898 5898 5898 5898 5898 5898 5899 5899 5899 5898 5899 5899 5899 5899 5899 5899 5899 5899 5899 5898 5896 5895 5895 5896 5896 5894 5894 5896 5896 5896 5895 5893 5889 5887 5886 5886 5887 5889 5889 5889 5887 5887 5888 5888 5888 5886 5885 5885 5885 5885 5884 5883 5884 5883 5884 5884 5884 5883 5882 5881 5880
5883 5884 5884 5885 5886 5887 5888 5889 5890 5890 5891 5891 5892 5892 5892 5892 5892 5892 5893 5893 5893 5892 5892 5893 5893 5892 5892 5893 5893 5892 5892 5892 5891 5890 5889 5889 5889 5889 5888 5888 5889 5889 5889 5889 5888 5885 5881 5880 5880 5882 5883 5884 5883 5883 5881 5881 5882 5882 5880 5881 5881 5881 5880 5878 5878 5879 5879 5879 5880 5879 5879 5878 5876 5875
5876 5877 5878 5879 5880 5881 5882 5883 5884 5884 5885 5886 5886 5886 5886 5886 5887 5887 5887 5887 5886 5886 5887 5887 5886 5886 5886 5886 5886 5886 5886 5886 5885 5884 5883 5882 5882 5882 5882 5881 5882 5883 5882 5882 5882 5880 5876 5875 5875 5876 5877 5877 5878 5878 5877 5875 5875 5876 5876 5876 5877 5877 5875 5874 5873 5874 5874 5874 5874 5874 5875 5874 5873 5870
5869 5870 5872 5873 5874 5875 5875 5876 5877 5878 5879 5880 5880 5880 5881 5881 5881 5881 5881 5880 5880 5881 5881 5881 5880 5880 5880 5880 5880 5880 5880 5880 5879 5878 5878 5877 5876 5875 5875 5875 5875 5876 5875 5875 5875 5873 5871 5870 5869 5869 5870 5870 5870 5873 5873 5868 5866 5869 5872 5872 5872 5872 5870 5869 5869 5869 5869 5867 5867 5868 5869 5870 5869 5867
5862 5863 5864 5866 5867 5868 5869 5870 5871 5872 5872 5873 5873 5874 5874 5875 5875 5875 5875 5874 5874 5875 5875 5874 5874 5874 5874 5873 5873 5874 5873 5873 5873 5873 5872 5871 5870 5869 5869 5869 5869 5869 5868 5868 5868 5866 5866 5866 5864 5863 5863 5863 5863 5866 5867 5862 5860 5863 5866 5867 5867 5866 5864 5863 5864 5864 5864 5862 5861 5862 5862 5864 5864 5862
5854 5855 5856 5858 5859 5860 5861 5862 5863 5864 5865 5866 5866 5867 5867 5868 5869 5869 5869 5868 5868 5868 5868 5868 5868 5868 5868 5867 5867 5867 5867 5866 5867 5867 5866 5865 5864 5863 5863 5863 5863 5863 5862 5862 5862 5861 5860 5861 5860 5858 5856 5855 5856 5859 5860 5857 5857 5857 5857 5858 5860 5859 5857 5856 5857 5858 5858 5857 5856 5855 5855 5857 5858 5857
5845 5846 5848 5849 5850 5851 5853 5854 5855 5856 5857 5858 5858 5859 5860 5861 5861 5862 5862 5862 5862 5861 5861 5861 5862 5861 5861 5861 5860 5860 5860 5860 5860 5860 5860 5858 5857 5857 5857 5856 5856 5856 5856 5856 5856 5855 5854 5854 5854 5851 5848 5848 5850 5851 5851 5852 5854 5854 5851 5850 5851 5852 5850 5849 5850 5851 5852 5851 5849 5849 5849 5851 5851 5851
5836 5837 5838 5839 5841 5842 5843 5844 5846 5847 5848 5850 5850 5851 5852 5853 5853 5854 5854 5854 5854 5854 5854 5854 5854 5854 5854 5854 5853 5853 5853 5853 5854 5854 5853 5852 5851 5851 5850 5850 5850 5849 5849 5850 5850 5849 5848 5847 5846 5843 5841 5842 5842 5842 5842 5844 5849 5852 5849 5845 5843 5843 5843 5843 5843 5844 5845 5844 5842 5842 5843 5844 5844 5843
5826 5827 5828 5830 5831 5833 5834 5835 5836 5837 5839 5840 5841 5842 5843 5844 5845 5845 5845 5845 5846 5846 5846 5846 5846 5846 5846 5846 5846 5846 5846 5845 5846 5846 5846 5845 5844 5844 5843 5843 5843 5843 5842 5843 5844 5844 5842 5840 5838 5836 5835 5835 5835 5834 5834 5836 5842 5846 5845 5841 5837 5836 5836 5836 5836 5837 5838 5837 5835 5835 5837 5837 5836 5835
5816 5817 5818 5820 5821 5823 5824 5825 5826 5827 5828 5830 5831 5832 5833 5834 5835 5835 5836 5836 5836 5837 5837 5837 5838 5838 5838 5838 5838 5838 5838 5837 5837 5838 5838 5837 5837 5837 5836 5836 5836 5836 5835 5835 5837 5838 5836 5833 5831 5829 5829 5828 5828 5827 5827 5830 5833 5836 5838 5837 5834 5830 5829 5829 5829 5829 5830 5830 5829 5829 5830 5829 5827 5827
5805 5806 5808 5809 5811 5812 5814 5815 5816 5817 5818 5819 5820 5821 5823 5824 5824 5825 5825 5826 5826 5827 5827 5828 5828 5829 5829 5829 5829 5829 5829 5829 5829 5829 5829 5829 5828 5829 5829 5828 5828 5828 5828 5828 5830 5831 5829 5827 5825 5823 5822 5822 5822 5821 5821 5823 5825 5826 5829 5830 5829 5826 5824 5823 5822 5821 5821 5822 5822 5822 5822 5820 5818 5819
5794 5795 5797 5798 5800 5801 5802 5804 5805 5806 5808 5809 5810 5811 5812 5813 5814 5814 5815 5815 5816 5817 5817 5818 5819 5819 5819 5819 5820 5820 5820 5820 5820 5821 5821 5821 5821 5820 5820 5821 5820 5820 5820 5821 5822 5823 5822 5820 5818 5817 5816 5816 5816 5814 5814 5816 5818 5818 5820 5822 5822 5821 5820 5818 5815 5814 5814 5815 5815 5814 5812 5811 5810 5811
5783 5785 5786 5788 5789 5790 5791 5791 5793 5795 5796 5797 5798 5799 5801 5802 5803 5804 5804 5805 5805 5806 5807 5808 5809 5809 5809 5809 5810 5811 5811 5811 5811 5812 5812 5812 5813 5812 5812 5812 5812 5812 5813 5813 5813 5814 5815 5814 5812 5810 5810 5810 5809 5808 5808 5809 5810 5811 5812 5813 5813 5814 5814 5812 5809 5808 5808 5809 5809 5806 5803 5803 5803 5802